Shannon, Ireland

11:28 AM IST on August 20, 2017 (GMT +0100)
Shannon

Weather History for EINN - February, 2012

Change the Weather History Date:

Monday, February 13, 2012

  Actual Average Record
Temperature  
Mean Temperature 44 °F -  
Max Temperature 50 °F 49 °F 59 °F (1998)
Min Temperature 39 °F 37 °F 33 °F (2001)
Degree Days  
Heating Degree Days 20    
Moisture  
Dew Point 42 °F    
Average Humidity 87    
Maximum Humidity 100    
Minimum Humidity 69    
Precipitation  
Precipitation 0.00 in 0.09 in - ()
Sea Level Pressure  
Sea Level Pressure 30.60 in    
Wind  
Wind Speed 8 mph ()    
Max Wind Speed 20 mph    
Max Gust Speed -    
Visibility 6.5 miles    
Events Fog , Rain    
Averages and records for this station are not official NWS values.
T = Trace of Precipitation, MM = Missing Value Source: Averaged Metar Reports

Daily Weather History Graph

Daily Weather History Graph

Search for Another Location

Airport or City:

Trip Planner

Search our weather history database for the weather conditions in past years. The results will help you decide how hot, cold, wet, or windy it might be!

Date:

Astronomy

Feb. 13, 2012 Rise Set
Actual Time 7:57 AM GMT 5:43 PM GMT
Civil Twilight 7:21 AM GMT 6:18 PM GMT
Nautical Twilight 6:41 AM GMT 6:59 PM GMT
Astronomical Twilight 6:01 AM GMT 7:38 PM GMT
Moon 12:21 AM GMT (2/13) 9:46 AM GMT (2/13)
Length of Visible Light 10h 57m
Length of Day
9h 45m
Waning Gibbous, 64% of the Moon is Illuminated
Feb 13
Waning Gibbous
Feb 14
Last Quarter
Feb 21
New
Mar 1
First Quarter
Mar 8
Full

Hourly Weather History & Observations

Time (GMT) Temp. Windchill Dew Point Humidity Pressure Visibility Wind Dir Wind Speed Gust Speed Precip Events Conditions
12:00 AM 41 °F - 40 °F 95% 30.68 in 10 mi NNW 6.7 mph - - Fog Patches of Fog
12:00 AM 41.0 °F 37.1 °F 41.0 °F 100% 30.66 in 6.2 mi NNW 5.8 mph - N/A Fog Shallow Fog
12:30 AM 41.0 °F 38.0 °F 41.0 °F 100% 30.66 in 6.2 mi West 4.6 mph - N/A Fog Shallow Fog
1:00 AM 42.8 °F 39.3 °F 41.0 °F 93% 30.66 in 5.0 mi North 5.8 mph - N/A   Mostly Cloudy
1:30 AM 42.8 °F 39.3 °F 42.8 °F 100% 30.66 in 6.2 mi SW 5.8 mph - N/A   Mostly Cloudy
2:00 AM 44.6 °F 41.4 °F 42.8 °F 93% 30.63 in 6.2 mi West 5.8 mph - N/A   Mostly Cloudy
2:30 AM 44.6 °F 40.7 °F 42.8 °F 93% 30.63 in 6.2 mi West 6.9 mph - N/A   Mostly Cloudy
3:00 AM 44.6 °F 41.4 °F 42.8 °F 93% 30.63 in 6.2 mi West 5.8 mph - N/A   Mostly Cloudy
3:30 AM 44.6 °F 40.7 °F 42.8 °F 93% 30.63 in 6.2 mi West 6.9 mph - N/A   Mostly Cloudy
4:00 AM 44.6 °F 39.7 °F 42.8 °F 93% 30.63 in 6.2 mi West 9.2 mph - N/A   Mostly Cloudy
4:30 AM 42.8 °F 38.0 °F 41.0 °F 93% 30.63 in 6.2 mi WNW 8.1 mph - N/A   Mostly Cloudy
5:00 AM 42.8 °F 38.0 °F 41.0 °F 93% 30.63 in 6.2 mi WNW 8.1 mph - N/A   Mostly Cloudy
5:30 AM 44.6 °F 38.1 °F 42.8 °F 93% 30.63 in 6.2 mi WNW 13.8 mph - N/A   Mostly Cloudy
6:00 AM 43 °F - 42 °F 95% 30.63 in 12 mi NW 11.2 mph - - Rain Light Drizzle
6:00 AM 42.8 °F 36.6 °F 42.8 °F 100% 30.60 in 6.2 mi NW 11.5 mph - N/A   Mostly Cloudy
6:30 AM 42.8 °F 38.0 °F 42.8 °F 100% 30.63 in 6.2 mi NW 8.1 mph - N/A   Mostly Cloudy
7:00 AM 42.8 °F 38.0 °F 41.0 °F 93% 30.63 in 6.2 mi WNW 8.1 mph - N/A   Mostly Cloudy
7:30 AM 42.8 °F 38.0 °F 41.0 °F 93% 30.63 in 6.2 mi NW 8.1 mph - N/A   Mostly Cloudy
8:00 AM 42.8 °F 39.3 °F 41.0 °F 93% 30.63 in 6.2 mi NW 5.8 mph - N/A   Scattered Clouds
8:30 AM 42.8 °F 40.1 °F 41.0 °F 93% 30.63 in 6.2 mi WNW 4.6 mph - N/A   Scattered Clouds
9:00 AM 42.8 °F 38.6 °F 41.0 °F 93% 30.60 in 6.2 mi West 6.9 mph - N/A   Mostly Cloudy
9:30 AM 44.6 °F 39.2 °F 42.8 °F 93% 30.60 in 6.2 mi West 10.4 mph - N/A   Mostly Cloudy
10:00 AM 46.4 °F 42.9 °F 42.8 °F 87% 30.60 in 6.2 mi WSW 6.9 mph - N/A   Mostly Cloudy
10:30 AM 46.4 °F 41.5 °F 44.6 °F 93% 30.60 in 6.2 mi West 10.4 mph - N/A   Light Drizzle
11:00 AM 48.2 °F - 44.6 °F 87% 30.60 in 5.0 mi WNW 17.3 mph - N/A   Light Drizzle
11:30 AM 48.2 °F - 44.6 °F 87% 30.60 in 6.2 mi WNW 16.1 mph - N/A   Mostly Cloudy
12:00 PM 49 °F - 45 °F 82% 30.60 in 12 mi WNW 17.9 mph - - Rain Light Drizzle
12:00 PM 50.0 °F - 44.6 °F 82% 30.60 in 6.2 mi WNW 18.4 mph - N/A   Mostly Cloudy
12:30 PM 50.0 °F - 44.6 °F 82% 30.57 in 6.2 mi WNW 18.4 mph - N/A   Mostly Cloudy
1:00 PM 50.0 °F - 44.6 °F 82% 30.57 in 6.2 mi WNW 19.6 mph - N/A   Mostly Cloudy
1:30 PM 50.0 °F - 46.4 °F 87% 30.57 in 6.2 mi WNW 17.3 mph - N/A   Light Drizzle
2:00 PM 50.0 °F - 46.4 °F 87% 30.57 in 6.2 mi WNW 15.0 mph - N/A   Mostly Cloudy
2:30 PM 50.0 °F - 44.6 °F 82% 30.57 in 6.2 mi NW 12.7 mph - N/A   Light Drizzle
3:00 PM 48.2 °F - 42.8 °F 82% 30.54 in 6.2 mi NW 10.4 mph - N/A   Mostly Cloudy
3:30 PM 48.2 °F - 42.8 °F 82% 30.54 in 6.2 mi NNW 13.8 mph - N/A   Mostly Cloudy
4:00 PM 48.2 °F - 42.8 °F 82% 30.54 in 6.2 mi NNW 12.7 mph - N/A   Mostly Cloudy
4:30 PM 48.2 °F - 41.0 °F 76% 30.54 in 6.2 mi NW 11.5 mph - N/A   Mostly Cloudy
5:00 PM 48.2 °F - 41.0 °F 76% 30.54 in 6.2 mi NW 15.0 mph - N/A   Mostly Cloudy
5:30 PM 48.2 °F - 39.2 °F 71% 30.54 in 6.2 mi NNW 13.8 mph - N/A   Mostly Cloudy
6:00 PM 47 °F - 40 °F 69% 30.58 in 22 mi NNW 11.2 mph - -   Partly Cloudy
6:00 PM 46.4 °F 41.1 °F 41.0 °F 81% 30.57 in 6.2 mi NNW 11.5 mph - N/A   Mostly Cloudy
6:30 PM 46.4 °F 41.5 °F 41.0 °F 81% 30.57 in 6.2 mi NW 10.4 mph - N/A   Mostly Cloudy
7:00 PM 46.4 °F 41.5 °F 41.0 °F 81% 30.57 in 6.2 mi NNW 10.4 mph - N/A   Mostly Cloudy
7:30 PM 46.4 °F 40.7 °F 41.0 °F 81% 30.57 in 6.2 mi NW 12.7 mph - N/A   Mostly Cloudy
8:00 PM 46.4 °F 41.5 °F 41.0 °F 81% 30.60 in 6.2 mi NW 10.4 mph - N/A   Mostly Cloudy
8:30 PM 46.4 °F 43.5 °F 41.0 °F 81% 30.57 in 6.2 mi WNW 5.8 mph - N/A   Mostly Cloudy
9:00 PM 46.4 °F 42.9 °F 39.2 °F 76% 30.57 in 6.2 mi NW 6.9 mph - N/A   Mostly Cloudy
9:30 PM 44.6 °F 42.2 °F 39.2 °F 81% 30.60 in 6.2 mi NW 4.6 mph - N/A   Mostly Cloudy
10:00 PM 44.6 °F 43.1 °F 39.2 °F 81% 30.60 in 6.2 mi West 3.5 mph - N/A   Mostly Cloudy
10:30 PM 44.6 °F - 39.2 °F 81% 30.60 in 6.2 mi West 2.3 mph - N/A   Mostly Cloudy
11:00 PM 44.6 °F - 39.2 °F 81% 30.60 in 6.2 mi West 1.2 mph - N/A   Mostly Cloudy
11:30 PM 44.6 °F 43.1 °F 39.2 °F 81% 30.60 in 6.2 mi West 3.5 mph - N/A   Mostly Cloudy